Showing default

YARILO-2, 46491

Orbit data source: Space-Track

YARILO-2, 46491 is a payload satellite owned by MGTU Bauman (CIS) in SSO that was launched on Mon, 28 Sep 2020 UTC via a SOYUZ-2-1B launch vehicle from the Plesetsk Missile And Space Complex (PKMTR). Payloads include a variety of satellites, spacecraft, and rockets equipped with specific instruments for various scientific and technological missions. These include communications satellites like Starlink; space stations such as the ISS; scientific satellites like the Hubble; Earth observation satellites from companies like Planet Labs, Umbra, and HawkEye 360; GPS; miniature CubeSats for education and research; and military/defense satellites.

Loading next visibility...
YARILO-2 details
Identifier
46491, 2020-068F
Orbit
SSO
Last TLE update9 hours ago
Origin
Flag of CISMGTU Bauman (CIS)
ManufacturerMGTU Bauman
MissionOperational Amateur Science
Bus & MotorCUBESAT 1.5U, Unknown motor
Mass2 kg wet, 2 kg dry
Launch date (UTC)
2020-09-28 (4 years ago)
Launch vehicle
SOYUZ-2-1B
Launch site
Plesetsk Missile And Space Complex (PKMTR)
Object type
Payload
Rocket body
Debris
Shape & HBRBox + 2 Pan, Unknown HBR
Radar Cross Section0.025 m², Small (<0.1 m²)

Expand to show TLE details & history

TLE from 9 hours ago
0 YARILO-2
1 46491U 20068F   24361.18922415  .00224171  00000-0  20459-2 0  9997
2 46491  97.8093 341.7742 0005934  50.5639 309.6145 15.67146315234421
Epoch: 2024-12-26T04:32Z
Definitive object data (Epoch: 2024-12-26T04:32:28.966Z)
Latitude-0°
Longitude178.48132°
Altitude367.664 km
Speed7.69 km/s
True Right ascension22h 47m 05s
True Declination0° 00' 00"
Sunlit
Object was in daylight at TLE epoch
Visualization TLE readout
Latitude-82.23025°
Longitude-92.84038°
Altitude397.971 km
Speed7.668 km/s
Apparent Right ascension01h 16m 31s
Apparent Declination-63° 16' 15"
Sunlit
Object is in daylight
Visualization observer readout
Local Sidereal Time12:42:50
Azimuth189.361° SSW
Elevation-66.113°
Doppler factor1
Orbital elements
Apogee altitude367.995 km
Perigee altitude359.994 km
Semi-major axis6,742.131 km
Eccentricity0.0005934
Inclination97.8093°
RAAN341.7742°
Arg. of periapsis50.5639°
True anomaly309.56209°
Mean anomaly309.6145°
Eccentric anomaly309.5883°
Mean motion3.92055 °/min
BSTAR0.0020459
Orbital period91.82 mins
Loading maneuver chart data...
Loading historical data...
Loading historical data...
Loading historical data...
Loading historical data...
Loading historical data...
Loading historical data...
Loading historical data...

YARILO-2 Visibility forecast

Observer location: undefined°, undefined

Span
Click to sort rows by Start time (UTC) header in descending order
Start Az.
Max El. time (UTC)
Max El. Az.
Max El.
End time (UTC)
End Az.
5 mins2024-12-26 23:03:10.744Z172.294° S2024-12-26 23:06:10.744Z302.67° NW42.568°2024-12-26 23:08:10.744Z342.223° N
4 mins2024-12-27 11:45:10.744Z23.569° NE2024-12-27 11:47:10.744Z152.844° SSE39.467°2024-12-27 11:49:10.744Z184.281° SSW
|